Weather reports worldwide

Advertisment
Blencathra, United Kingdom (99143): temperature & dewpoint: 18.06.2017 23:00:00 - 24.06.2017 23:00:00 (BST)Blencathra, United Kingdom (99143): temperature 5cm: 18.06.2017 23:00:00 - 24.06.2017 23:00:00 (BST)Blencathra, United Kingdom (99143): visibility: 18.06.2017 23:00:00 - 24.06.2017 23:00:00 (BST)Blencathra, United Kingdom (99143): precipitation: 18.06.2017 23:00:00 - 24.06.2017 23:00:00 (BST)
Date & Time tt [°C] td [°C] tt 5cm [°C] vv [km] rr [mm]
24.06.2017 23:00:00 - - - - 0,0
24.06.2017 22:00:00 12,0 7,6 - - 0,0
24.06.2017 21:00:00 12,3 7,8 - - 0,0
24.06.2017 20:00:00 12,4 7,7 - - 0,0
24.06.2017 19:00:00 13,2 8,0 - - 0,0
24.06.2017 18:00:00 13,1 8,3 - - 0,0
24.06.2017 17:00:00 13,2 7,6 - - 0,0
24.06.2017 16:00:00 13,0 7,8 - - 0,0
24.06.2017 15:00:00 12,9 9,3 - - 0,0
24.06.2017 14:00:00 13,1 9,7 - - 0,0
24.06.2017 13:00:00 13,0 9,2 - - 0,0
24.06.2017 12:00:00 13,1 10,4 - - 0,0
24.06.2017 11:00:00 12,3 9,2 - - 0,0
24.06.2017 10:00:00 11,3 10,2 - 0,2 0,2
24.06.2017 09:00:00 11,0 8,4 - - 0,0
24.06.2017 08:00:00 10,9 8,6 - - 0,0
24.06.2017 07:00:00 10,6 7,6 - - 0,0
24.06.2017 06:00:00 10,2 7,6 - - 0,0
24.06.2017 05:00:00 10,4 8,0 - - 0,0
24.06.2017 04:00:00 10,6 9,0 - - 0,0
24.06.2017 03:00:00 10,7 8,6 - - 0,0
24.06.2017 02:00:00 11,1 9,5 - - 0,0
24.06.2017 01:00:00 11,8 10,9 - - 0,6
24.06.2017 00:00:00 11,6 11,2 - - 0,2
23.06.2017 23:00:00 11,7 11,3 - - 0,6
23.06.2017 22:00:00 11,9 11,5 - 10 0,2
23.06.2017 21:00:00 11,9 11,6 - - 0,8
23.06.2017 20:00:00 12,0 11,6 - - 0,8
23.06.2017 19:00:00 12,4 11,9 - - 0,2
23.06.2017 18:00:00 12,9 12,3 - - 0,2
23.06.2017 17:00:00 13,0 12,4 - - 0,8
23.06.2017 16:00:00 14,0 12,9 - - 0,0
23.06.2017 15:00:00 14,2 12,7 - - 0,0
23.06.2017 14:00:00 13,8 12,8 - - 0,0
23.06.2017 13:00:00 13,4 12,7 - - 0,0
23.06.2017 12:00:00 12,9 12,5 - - 0,4
23.06.2017 11:00:00 12,6 12,2 - - 0,2
23.06.2017 10:00:00 12,4 12,0 - 0,7 0,4
23.06.2017 09:00:00 12,3 11,7 - - 0,2
23.06.2017 08:00:00 12,2 11,4 - - 0,4
23.06.2017 07:00:00 12,0 11,3 - - 6,8
23.06.2017 06:00:00 12,1 11,0 - - 2,0
23.06.2017 05:00:00 13,0 10,2 - - 0,2
23.06.2017 04:00:00 13,9 9,2 - - 0,0
23.06.2017 03:00:00 12,9 9,3 - - 0,2
23.06.2017 02:00:00 12,9 9,8 - - 0,0
23.06.2017 01:00:00 13,2 9,5 - - 0,0
23.06.2017 00:00:00 12,4 9,3 - - 0,0
22.06.2017 23:00:00 12,6 9,5 - - 0,0
22.06.2017 22:00:00 12,6 9,4 - - 0,0
22.06.2017 21:00:00 12,6 8,9 - - 0,0
22.06.2017 20:00:00 13,1 8,9 - - 0,0
22.06.2017 19:00:00 14,2 9,0 - - 0,0
22.06.2017 18:00:00 13,8 8,1 - - 0,0
22.06.2017 17:00:00 15,9 10,6 - - 0,0
22.06.2017 16:00:00 15,8 11,6 - - 0,0
22.06.2017 15:00:00 13,5 10,8 - - 0,0
22.06.2017 14:00:00 12,8 10,7 - - 0,0
22.06.2017 13:00:00 14,3 11,9 - - 0,0
22.06.2017 12:00:00 14,0 12,5 - - 0,0
22.06.2017 11:00:00 13,8 12,3 - - 0,0
22.06.2017 10:00:00 13,7 13,1 - 4,3 0,2
22.06.2017 09:00:00 13,5 13,2 - - 0,0
22.06.2017 08:00:00 14,5 14,1 - - 0,2
22.06.2017 07:00:00 14,8 14,4 - - 0,2
22.06.2017 06:00:00 14,8 14,2 - - 0,0
22.06.2017 05:00:00 15,3 14,5 - - 0,0
22.06.2017 04:00:00 15,9 14,7 - - 0,0
22.06.2017 03:00:00 17,3 15,2 - - 0,0
22.06.2017 02:00:00 17,3 14,6 - - 0,0
22.06.2017 01:00:00 18,3 13,9 - - 0,0
22.06.2017 00:00:00 19,4 14,5 - - 0,0
21.06.2017 23:00:00 20,1 15,9 - - 0,0
21.06.2017 22:00:00 20,7 16,9 - - 0,0
21.06.2017 21:00:00 22,1 17,0 - - 0,0
21.06.2017 20:00:00 22,9 17,8 - - 0,0
21.06.2017 19:00:00 23,6 18,4 - - 0,0
21.06.2017 18:00:00 23,9 17,6 - - 0,0
21.06.2017 17:00:00 24,4 18,1 - - 0,0
21.06.2017 16:00:00 23,8 16,6 - - 0,0
21.06.2017 15:00:00 23,4 17,8 - - 0,0
21.06.2017 14:00:00 21,9 17,4 - - 0,0
21.06.2017 13:00:00 19,2 15,6 - - 0,0
21.06.2017 12:00:00 19,2 15,2 - - 0,0
21.06.2017 11:00:00 18,0 14,8 - - 0,0
21.06.2017 10:00:00 16,8 14,7 16,8 2,0 0,0
21.06.2017 09:00:00 15,3 13,2 - - 0,2
21.06.2017 08:00:00 15,4 13,2 - - 0,0
21.06.2017 07:00:00 15,1 13,2 - - 0,0
21.06.2017 06:00:00 15,0 13,0 - - 0,0
21.06.2017 05:00:00 14,6 12,0 - - 0,0
21.06.2017 04:00:00 14,3 11,8 - - 0,0
21.06.2017 03:00:00 14,3 12,1 - - 0,0
21.06.2017 02:00:00 14,4 12,0 - - 0,0
21.06.2017 01:00:00 13,4 11,6 - - 0,0
21.06.2017 00:00:00 14,9 11,9 - - 0,0
20.06.2017 23:00:00 15,6 12,8 - - 0,0
20.06.2017 22:00:00 16,6 13,1 - - 0,0
20.06.2017 21:00:00 17,6 13,4 - - 0,0
20.06.2017 20:00:00 18,9 14,1 - - 0,0
20.06.2017 19:00:00 19,3 14,7 - - 0,0
20.06.2017 18:00:00 19,6 15,0 - - 0,0
20.06.2017 17:00:00 19,7 14,9 - - 0,0
20.06.2017 16:00:00 20,5 14,9 - - 0,0
20.06.2017 15:00:00 21,3 15,5 - - 0,0
20.06.2017 14:00:00 20,4 14,5 - - 0,0
20.06.2017 13:00:00 19,8 14,9 - - 0,0
20.06.2017 12:00:00 18,5 14,4 - - 0,0
20.06.2017 11:00:00 17,4 13,9 - - 0,0
20.06.2017 10:00:00 17,2 14,0 17,2 20 0,0
20.06.2017 09:00:00 15,8 13,0 - - 0,0
20.06.2017 08:00:00 15,1 14,1 - - 0,0
20.06.2017 07:00:00 12,2 11,9 - - 0,0
20.06.2017 06:00:00 11,2 10,6 - - 0,0
20.06.2017 05:00:00 11,1 10,4 - - 0,0
20.06.2017 04:00:00 11,1 10,0 - - 0,0
20.06.2017 03:00:00 12,3 11,1 - - 0,0
20.06.2017 02:00:00 12,8 11,2 - - 0,0
20.06.2017 01:00:00 13,6 11,0 - - 0,0
20.06.2017 00:00:00 15,2 11,1 - - 0,0
19.06.2017 23:00:00 15,8 11,0 - - 0,0
19.06.2017 22:00:00 16,2 12,0 - - 0,0
19.06.2017 21:00:00 18,2 13,9 - - 0,0
19.06.2017 20:00:00 20,4 15,4 - - 0,0
19.06.2017 19:00:00 20,8 14,6 - - 0,0
19.06.2017 18:00:00 21,8 14,7 - - 0,0
19.06.2017 17:00:00 22,5 15,1 - - 0,0
19.06.2017 16:00:00 22,8 14,7 - - 0,0
19.06.2017 15:00:00 23,5 15,9 - - 0,0
19.06.2017 14:00:00 23,1 15,9 - - 0,0
19.06.2017 13:00:00 23,3 15,6 - - 0,0
19.06.2017 12:00:00 23,1 15,3 - - 0,0
19.06.2017 11:00:00 21,7 14,1 - - 0,0
19.06.2017 10:00:00 21,1 12,6 21,2 35 0,0
19.06.2017 09:00:00 19,5 13,9 - - 0,0
19.06.2017 08:00:00 16,0 11,6 - - 0,0
19.06.2017 07:00:00 15,4 11,6 - - 0,0
19.06.2017 06:00:00 13,0 9,7 - - 0,0
19.06.2017 05:00:00 13,6 9,5 - - 0,0
19.06.2017 04:00:00 13,7 9,7 - - 0,0
19.06.2017 03:00:00 15,2 11,0 - - 0,0
19.06.2017 02:00:00 14,2 11,5 - - 0,0
19.06.2017 01:00:00 14,9 11,6 - - 0,0
19.06.2017 00:00:00 15,8 11,6 - - 0,0
18.06.2017 23:00:00 16,6 11,7 - - 0,0

tt = temperature
td = dewpoint
tt 5cm = temperature 5cm
vv = visibility
rr = precipitation

Next stations